Overview Statistics Trail Chart Weather Telemetry Raw packets
 

This is the latest recevied weather packets stored in our database for station/object K7KAR-2. If no packets are shown the sender has not sent any weather packets the latest 10 day(s).

<< 106 107 108 109 110 111 112 >>
Time Temp. Humidity Pressure Rain* Wind** Luminosity Snow
1787811785 21.67° C 37% 1018.4 hPa 0 mm - 0 W/m² -
1787811485 21.67° C 37% 1018.5 hPa 0 mm - 0 W/m² -
1787811179 21.67° C 37% 1018.5 hPa 0 mm - 0 W/m² -
1787810874 21.67° C 37% 1018.6 hPa 0 mm - 0 W/m² -
1787810569 21.67° C 37% 1018.5 hPa 0 mm - 0 W/m² -
1787810271 21.67° C 37% 1018.8 hPa 0 mm - 0 W/m² -
1787809964 21.11° C 38% 1018.4 hPa 0 mm - 0 W/m² -
1787809664 21.67° C 38% 1018.4 hPa 0 mm - 0 W/m² -
1787809360 21.67° C 37% 1018.7 hPa 0 mm - 0 W/m² -
1787809055 22.22° C 37% 1018.7 hPa 0 mm - 0 W/m² -
1787808751 23.33° C 34% 1018.7 hPa 0 mm - 0 W/m² -
1787808450 22.78° C 36% 1018.7 hPa 0 mm - 0 W/m² -
1787808150 21.11° C 38% 1018.7 hPa 0 mm - 0 W/m² -
1787807849 21.67° C 38% 1018.8 hPa 0 mm - 0 W/m² -
1787807545 21.67° C 37% 1018.5 hPa 0 mm - 0 W/m² -
1787807240 21.67° C 37% 1018.5 hPa 0 mm - 0 W/m² -
1787806935 22.78° C 36% 1018.8 hPa 0 mm - 0 W/m² -
1787806633 22.78° C 35% 1019 hPa 0 mm - 0 W/m² -
1787806329 22.78° C 35% 1019.1 hPa 0 mm - 0 W/m² -
1787806022 22.22° C 36% 1019 hPa 0 mm - 0 W/m² -
1787805718 21.67° C 37% 1018.9 hPa 0 mm - 0 W/m² -
1787805413 21.67° C 37% 1018.9 hPa 0 mm - 0 W/m² -
1787805108 21.11° C 37% 1019 hPa 0 mm - 0 W/m² -
1787804802 21.11° C 38% 1018.9 hPa 0 mm - 0 W/m² -
1787804498 22.22° C 37% 1018.8 hPa 0 mm - 0 W/m² -

* Rain latest hour (hover to see other rain measurements)
** Current wind speed in m/s (hover to see current wind gust speed)